Regional Weather Roundup
Issued by NWS

Home | Current Version | Previous Version | Graphics & Text | Print | Product List | Glossary Off
Versions: 1 2 3 4 5 6 7 8 9 10 11 12 13 14 15 16 17 18 19 20 21 22 23 24 25 26 27 28 29 30 31 32 33 34 35 36 37 38 39 40 41 42 43 44 45 46 47 48 49 50

437
ASUS43 KLSX 241457
RWRMO

WEATHER SUMMARY FOR MISSOURI
NATIONAL WEATHER SERVICE SPRINGFIELD MO
900 AM CST SAT FEB 24 2018

NOTE: "FAIR" INDICATES FEW OR NO CLOUDS BELOW 12,000 FEET WITH NO
       SIGNIFICANT WEATHER AND/OR OBSTRUCTIONS TO VISIBILITY.
       CURRENT SKY AND/OR WEATHER CONDITIONS ARE NOT AVAILABLE FOR
       CHILLICOTHE AND FARMINGTON.

MOZ001>031-035>038-043-044-053-054-241600-
...NORTHERN AND WESTERN MISSOURI...

CITY           SKY/WX    TMP DP  RH WIND       PRES   REMARKS
KANSAS CTY INT DRIZZLE   34  33  96 E12       29.90F FOG     WCI  25
ST JOSEPH      CLOUDY    33  33 100 SE7       29.93S FOG     WCI  27
CHILLICOTHE      N/A     34  32  92 E6        29.96F WCI  29

$$
MOZ066>068-077>081-088>096-101>105-241600-
...SOUTHWEST MISSOURI...

CITY           SKY/WX    TMP DP  RH WIND       PRES   REMARKS
SPRINGFIELD    CLOUDY    50  49  96 SE12      29.88F
JOPLIN         FOG       43  43 100 CALM      29.85F VSB 1/4
BRANSON        CLOUDY    48  48 100 SE9       29.92F FOG

$$
MOZ032>034-039>042-045>050-055>058-069>072-241600-
...CENTRAL MISSOURI...

CITY           SKY/WX    TMP DP  RH WIND       PRES   REMARKS
COLUMBIA       NOT AVBL
JEFFERSON CITY CLOUDY    40  38  93 E10       29.96F FOG
ROLLA          CLOUDY    47  47 100 SE9       29.95S
SEDALIA        CLOUDY    38  38 100 E8        29.93F FOG
WARRENSBURG    CLOUDY    36  36 100 E7        29.92F FOG     WCI  30

$$
MOZ051-052-059>065-241600-
...EAST CENTRAL MISSOURI...

CITY           SKY/WX    TMP DP  RH WIND       PRES   REMARKS
ST LOUIS INTL  CLOUDY    43  42  97 N8        30.00F

$$
MOZ072>076-082>087-097>100-106>115-241600-
...SOUTH CENTRAL AND SOUTHEAST MISSOURI...

CITY           SKY/WX    TMP DP  RH WIND       PRES   REMARKS
CAPE GIRARDEAU CLOUDY    50  49  96 E7        29.97F FOG
POPLAR BLUFF   LGT RAIN  50  49  96 N8        29.99R FOG
WEST PLAINS    CLOUDY    49  48  97 E6        29.95F

$$



USA.gov is the U.S. government's official web portal to all federal, state and local government web resources and services.